Showing default

HULIANWANG DIGUI-49, 65106

Orbit data source: Space-Track

HULIANWANG DIGUI-49, 65106 is a payload satellite owned by Zhongguo Xingwang (CN) in LEO that was launched on Mon, 04 Aug 2025 UTC via a CHANG ZHENG 12 launch vehicle from the Wenchang Satellite Launch Center (WSC). Payload-class satellites include a variety of spacecraft equipped with specific instruments for various scientific and technological missions. These include communications satellites like Starlink; space stations such as the ISS; scientific satellites like the Hubble; Earth observation satellites from companies like Planet Labs, Umbra, and HawkEye 360; GPS; miniature CubeSats for education and research; and military/defense satellites.

Loading next visibility...
Identifier
65106, 2025-168A
Orbit
LEO
Country
Flag of CNCN / PRC
Related business
Manufacturer
YINNT
Mission
Operational Civil Communications
Bus & Motor
GUOWANG Y, Unknown motor
Mass
~800 kg wet, ~800 kg dry
Launch date (UTC)
2025-08-04 (4 months ago)
Launch vehicle
CHANG ZHENG 12
Launch site
Wenchang Satellite Launch Center (WSC)
Object type
Payload
Rocket body
Debris
Shape & HBR
Box + 2 Pan, 2.0 m
Radar Cross Section
5.935 m², Large (>1 m²)

Expand to show TLE details & history
Last TLE update: 7 hours ago

TLE from 7 hours ago
0 HULIANWANG DIGUI-49
1 65106U 25168A   25343.55905251 -.00000042  00000-0  17679-3 0  9999
2 65106  50.0036 286.0925 0007871 265.1361  94.8612 13.29328584 17466
Epoch: 2025-12-09T13:25Z
TLE epoch observation values (Epoch: 2025-12-09T13:25:02.136Z)
Latitude
-0.00007°
Longitude
6.29154°
Altitude
1,150.31 km
Speed
7.279 km/s
True Right ascension
19h 04m 22s
True Declination
0° 00' 00"
Sunlit
Object was in daylight at epoch
Visualization orbit readout
Latitude
Unknown
Longitude
Unknown
Altitude
Unknown
Speed
Unknown
Apparent Right ascension
Unknown
Apparent Declination
Unknown
Sunlit
N/A
Visualization observer readout
Local Sidereal Time
19:07:20
Azimuth
Unknown
Elevation
Unknown
Doppler factor
Unknown
Orbital elements
Apogee altitude
1,155.927 km
Perigee altitude
1,144.076 km
Semi-major axis
7,528.139 km
Eccentricity
0.00079
Inclination
50.0036°
RAAN
286.0925°
Arg. of periapsis
265.1361°
True anomaly
94.95106°
Mean anomaly
94.8612°
Eccentric anomaly
94.90613°
Mean motion
3.32286 °/min
Orbital period
108.34 mins
BSTAR
0.00017679
Loading maneuver chart data...
Computing Atmospheric mass density...
Loading historical data...
Loading historical data...
Loading historical data...
Loading historical data...
Loading historical data...
Loading historical data...
Loading historical data...

Documentation

Showing up to 5 results
|